Somerville, NJ

6:34 AM EDT on April 25, 2017 (GMT -0400)
Somerset

Weather History for KSMQ - March, 2013

Change the Weather History Date:

Wednesday, March 20, 2013

  Actual Average Record
Temperature  
Mean Temperature 39 °F -  
Max Temperature 46 °F 50 °F 84 °F (1945)
Min Temperature 32 °F 28 °F 2 °F (1949)
Degree Days  
Heating Degree Days 26    
Moisture  
Dew Point 17 °F    
Average Humidity 43    
Maximum Humidity 59    
Minimum Humidity 25    
Precipitation  
Precipitation 0.00 in - - ()
Sea Level Pressure  
Sea Level Pressure 29.84 in    
Wind  
Wind Speed 7 mph (West)    
Max Wind Speed 16 mph    
Max Gust Speed 26 mph    
Visibility 10 miles    
Events      
Averages and records for this station are not official NWS values.
T = Trace of Precipitation, MM = Missing Value Source: NWS Daily Summary

Daily Weather History Graph

Daily Weather History Graph

Search for Another Location

Airport or City:

Trip Planner

Search our weather history database for the weather conditions in past years. The results will help you decide how hot, cold, wet, or windy it might be!

Date:

Astronomy

Mar. 20, 2013 Rise Set
Actual Time 7:01 AM EDT 7:11 PM EDT
Civil Twilight 6:34 AM EDT 7:38 PM EDT
Nautical Twilight 6:02 AM EDT 8:10 PM EDT
Astronomical Twilight 5:30 AM EDT 8:42 PM EDT
Moon 12:42 PM EDT (3/20) 2:41 AM EDT (3/20)
Length of Visible Light 13h 03m
Length of Day
12h 09m
First Quarter, 59% of the Moon is Illuminated
Mar 20
First Quarter
Mar 27
Full
Apr 3
Last Quarter
Apr 10
New
Apr 18
First Quarter

Hourly Weather History & Observations

Time (EDT) Temp. Windchill Dew Point Humidity Pressure Visibility Wind Dir Wind Speed Gust Speed Precip Events Conditions
12:53 AM 36.0 °F 31.1 °F 17.1 °F 46% 29.84 in 10.0 mi Variable 5.8 mph - N/A   Clear
1:53 AM 35.1 °F 27.4 °F 17.1 °F 48% 29.86 in 10.0 mi WNW 10.4 mph 19.6 mph N/A   Clear
2:53 AM 34.0 °F 29.8 °F 18.0 °F 52% 29.88 in 10.0 mi Variable 4.6 mph - N/A   Clear
3:53 AM 32.0 °F 28.7 °F 19.0 °F 59% 29.88 in 10.0 mi Variable 3.5 mph - N/A   Clear
4:53 AM 32.0 °F 26.4 °F 17.1 °F 54% 29.88 in 10.0 mi Variable 5.8 mph - N/A   Clear
5:53 AM 33.1 °F 26.1 °F 17.1 °F 52% 29.89 in 10.0 mi WSW 8.1 mph - N/A   Mostly Cloudy
6:53 AM 33.1 °F 25.5 °F 16.0 °F 50% 29.89 in 10.0 mi West 9.2 mph - N/A   Scattered Clouds
7:53 AM 34.0 °F 28.8 °F 16.0 °F 48% 29.90 in 10.0 mi West 5.8 mph - N/A   Clear
8:53 AM 37.0 °F 31.6 °F 17.1 °F 44% 29.89 in 10.0 mi Variable 6.9 mph - N/A   Clear
9:53 AM 37.0 °F 28.9 °F 17.1 °F 44% 29.89 in 10.0 mi West 12.7 mph 23.0 mph N/A   Partly Cloudy
10:53 AM 39.0 °F 32.8 °F 17.1 °F 41% 29.89 in 10.0 mi West 9.2 mph 25.3 mph N/A   Clear
11:53 AM 41.0 °F 35.8 °F 17.1 °F 38% 29.88 in 10.0 mi West 8.1 mph 24.2 mph N/A   Clear
12:53 PM 43.0 °F 36.4 °F 17.1 °F 35% 29.85 in 10.0 mi WNW 12.7 mph 24.2 mph N/A   Clear
1:53 PM 44.1 °F 39.0 °F 16.0 °F 32% 29.83 in 10.0 mi WSW 9.2 mph 21.9 mph N/A   Clear
2:53 PM 46.0 °F 39.3 °F 16.0 °F 30% 29.81 in 10.0 mi WNW 16.1 mph 26.5 mph N/A   Partly Cloudy
3:53 PM 46.0 °F 40.2 °F 16.0 °F 30% 29.79 in 10.0 mi West 12.7 mph 21.9 mph N/A   Mostly Cloudy
4:53 PM 46.0 °F 40.2 °F 12.0 °F 25% 29.78 in 10.0 mi West 12.7 mph 25.3 mph N/A   Mostly Cloudy
5:53 PM 45.0 °F 41.8 °F 15.1 °F 30% 29.78 in 10.0 mi Variable 5.8 mph 16.1 mph N/A   Scattered Clouds
6:53 PM 43.0 °F 41.3 °F 16.0 °F 34% 29.78 in 10.0 mi West 3.5 mph - N/A   Partly Cloudy
7:53 PM 39.9 °F - 16.0 °F 38% 29.79 in 10.0 mi Calm Calm - N/A   Clear
8:53 PM 39.9 °F - 17.1 °F 40% 29.80 in 10.0 mi Calm Calm - N/A   Overcast
9:53 PM 36.0 °F - 21.0 °F 55% 29.81 in 10.0 mi Calm Calm - N/A   Overcast
10:53 PM 35.1 °F - 21.9 °F 59% 29.81 in 10.0 mi Calm Calm - N/A   Overcast
11:53 PM 39.0 °F 32.8 °F 19.9 °F 46% 29.83 in 10.0 mi North 9.2 mph - N/A   Overcast